Jamestown, NY
on Thursday, December 7, 2017

Thursday
       
Previous Day Next Day
Daily Summary
 ActualAverageRecord
Temperature
Mean Temperature °F °C °F °C  
Max Temperature 30°F -1°C 38°F 3°C 64°F 17°C (1998)
Min Temperature 21°F -6°C 21°F -6°C 8°F -13°C (2008)
Degree Days
Heating Degree Days 40    
Moisture
Dew Point 18°F -8°C   
Average Humidity 71    
Maximum Humidity 89    
Minimum Humidity 50    
Precipitation
Precipitation 0.00 in / 0.00 cm in / cm in / cm ()
Wind
Wind Speed 15 mph / 24 km/h   
Max Wind Speed 22 mph / 35 km/h   
Max Gust Speed 30 mph / 48 km/h   
Visibility 8 miles / 13 kilometers   
Events Snow   
Averages and records for this station are not official NWS values.
Key: T is trace of precipitation, MM is missing value
Source: NWS Daily Summary
Seasonal Weather Averages
Time(EST)TemperatureDew PointHumidity Pressure Visibility Wind DirectionWind SpeedGust SpeedPrecipitationEvents Conditions
12:56 AM 30.0°F -1.1°C 18.0°F -7.8°C 61% 29.96 in / 1014.5 hPa 10.0 miles / 16.1 kilometers WSW 17.3 mph / 27.8 km/h - N/A   Overcast
1:56 AM 28.9°F -1.7°C 17.1°F -8.3°C 61% 29.97 in / 1014.9 hPa 10.0 miles / 16.1 kilometers SW 16.1 mph / 25.9 km/h - N/A   Overcast
2:56 AM 28.9°F -1.7°C 17.1°F -8.3°C 61% 29.98 in / 1015.2 hPa 10.0 miles / 16.1 kilometers SW 11.5 mph / 18.5 km/h - N/A   Overcast
3:56 AM 27.0°F -2.8°C 16.0°F -8.9°C 63% 29.97 in / 1014.9 hPa 10.0 miles / 16.1 kilometers SW 10.4 mph / 16.7 km/h - N/A   Overcast
4:56 AM 26.1°F -3.3°C 15.1°F -9.4°C 63% 29.97 in / 1014.7 hPa 10.0 miles / 16.1 kilometers SSW 13.8 mph / 22.2 km/h 18.4 mph / 29.6 km/h N/A   Overcast
5:56 AM 26.1°F -3.3°C 15.1°F -9.4°C 63% 29.97 in / 1014.8 hPa 10.0 miles / 16.1 kilometers SW 13.8 mph / 22.2 km/h - N/A   Overcast
6:56 AM 26.1°F -3.3°C 16.0°F -8.9°C 66% 29.98 in / 1015.1 hPa 10.0 miles / 16.1 kilometers SW 11.5 mph / 18.5 km/h - N/A   Overcast
7:56 AM 26.1°F -3.3°C 16.0°F -8.9°C 66% 29.98 in / 1015.1 hPa 10.0 miles / 16.1 kilometers SSW 15.0 mph / 24.1 km/h - N/A   Overcast
8:56 AM 26.1°F -3.3°C 16.0°F -8.9°C 66% 29.99 in / 1015.3 hPa 10.0 miles / 16.1 kilometers SW 16.1 mph / 25.9 km/h 23.0 mph / 37.0 km/h N/A   Overcast
9:56 AM 26.1°F -3.3°C 17.1°F -8.3°C 69% 29.99 in / 1015.4 hPa 10.0 miles / 16.1 kilometers SW 16.1 mph / 25.9 km/h 19.6 mph / 31.5 km/h 0.00 in / 0.0 cm   Overcast
10:56 AM 30.9°F -0.6°C 18.0°F -7.8°C 59% 29.98 in / 1015.0 hPa 10.0 miles / 16.1 kilometers WSW 21.9 mph / 35.2 km/h - N/A   Mostly Cloudy
11:56 AM 30.9°F -0.6°C 18.0°F -7.8°C 59% 29.96 in / 1014.4 hPa 10.0 miles / 16.1 kilometers SW 15.0 mph / 24.1 km/h 21.9 mph / 35.2 km/h N/A   Mostly Cloudy
12:56 PM 30.0°F -1.1°C 17.1°F -8.3°C 59% 29.94 in / 1013.9 hPa 10.0 miles / 16.1 kilometers WSW 16.1 mph / 25.9 km/h 23.0 mph / 37.0 km/h N/A   Overcast
1:56 PM 30.9°F -0.6°C 14.0°F -10.0°C 50% 29.93 in / 1013.4 hPa 10.0 miles / 16.1 kilometers SW 17.3 mph / 27.8 km/h 23.0 mph / 37.0 km/h N/A   Overcast
2:56 PM 30.0°F -1.1°C 15.1°F -9.4°C 54% 29.93 in / 1013.5 hPa 10.0 miles / 16.1 kilometers WSW 20.7 mph / 33.3 km/h 26.5 mph / 42.6 km/h N/A   Overcast
3:56 PM 28.9°F -1.7°C 15.1°F -9.4°C 56% 29.96 in / 1014.3 hPa 10.0 miles / 16.1 kilometers WSW 19.6 mph / 31.5 km/h 27.6 mph / 44.4 km/h N/A   Overcast
4:56 PM 27.0°F -2.8°C 17.1°F -8.3°C 66% 29.97 in / 1014.9 hPa 10.0 miles / 16.1 kilometers WSW 19.6 mph / 31.5 km/h 29.9 mph / 48.2 km/h N/A   Overcast
5:56 PM 26.1°F -3.3°C 18.0°F -7.8°C 71% 30.00 in / 1015.7 hPa 9.0 miles / 14.5 kilometers WSW 11.5 mph / 18.5 km/h - 0.00 in / 0.0 cm   Overcast
6:07 PM 26.6°F -3.0°C 17.6°F -8.0°C 69% 29.92 in / 1013.1 hPa 10.0 miles / 16.1 kilometers WSW 16.1 mph / 25.9 km/h 24.2 mph / 38.9 km/h N/A   Overcast
6:32 PM 24.8°F -4.0°C 21.2°F -6.0°C 86% 29.92 in / 1013.1 hPa 2.0 miles / 3.2 kilometers West 12.7 mph / 20.4 km/h - 0.00 in / 0.0 cm Snow Light Snow
6:40 PM 24.8°F -4.0°C 21.2°F -6.0°C 86% 29.93 in / 1013.4 hPa 5.0 miles / 8.0 kilometers West 11.5 mph / 18.5 km/h - 0.00 in / 0.0 cm Snow Light Snow
6:56 PM 25.0°F -3.9°C 21.0°F -6.1°C 85% 30.01 in / 1016.3 hPa 5.0 miles / 8.0 kilometers West 12.7 mph / 20.4 km/h - 0.00 in / 0.0 cm Snow Light Snow
7:56 PM 24.1°F -4.4°C 21.0°F -6.1°C 88% 30.04 in / 1017.1 hPa 2.5 miles / 4.0 kilometers WSW 16.1 mph / 25.9 km/h - 0.00 in / 0.0 cm Snow Light Snow
8:07 PM 24.8°F -4.0°C 21.2°F -6.0°C 86% 29.95 in / 1014.1 hPa 6.0 miles / 9.7 kilometers WSW 15.0 mph / 24.1 km/h 21.9 mph / 35.2 km/h 0.00 in / 0.0 cm Snow Light Snow
8:56 PM 23.0°F -5.0°C 19.9°F -6.7°C 88% 30.04 in / 1017.2 hPa 5.0 miles / 8.0 kilometers SW 13.8 mph / 22.2 km/h - 0.00 in / 0.0 cm Snow Light Snow
9:35 PM 23.0°F -5.0°C 19.4°F -7.0°C 86% 29.97 in / 1014.8 hPa 2.5 miles / 4.0 kilometers WSW 13.8 mph / 22.2 km/h 24.2 mph / 38.9 km/h 0.00 in / 0.0 cm Snow Light Snow
9:49 PM 23.0°F -5.0°C 19.4°F -7.0°C 86% 29.96 in / 1014.4 hPa 3.0 miles / 4.8 kilometers SW 11.5 mph / 18.5 km/h - 0.00 in / 0.0 cm Snow Light Snow
9:56 PM 23.0°F -5.0°C 19.9°F -6.7°C 88% 30.04 in / 1017.3 hPa 6.0 miles / 9.7 kilometers SW 12.7 mph / 20.4 km/h - 0.00 in / 0.0 cm Snow Light Snow
10:56 PM 21.9°F -5.6°C 19.0°F -7.2°C 89% 30.03 in / 1016.9 hPa 9.0 miles / 14.5 kilometers SW 13.8 mph / 22.2 km/h 20.7 mph / 33.3 km/h 0.00 in / 0.0 cm Snow Light Snow
11:56 PM 21.9°F -5.6°C 18.0°F -7.8°C 85% 30.03 in / 1016.8 hPa 9.0 miles / 14.5 kilometers SW 15.0 mph / 24.1 km/h 24.2 mph / 38.9 km/h 0.00 in / 0.0 cm Snow Light Snow